QPF
0.00 0.00 0.00 0.00 0.00 0.00 0.00 0.00 0.00 0.00 0.00 0.00 0.00 0.00 0.00 0.00 0.00 0.00 0.00 0.00 0.00 0.00 0.00 0.00 0.00 0.00 0.00 0.00 0.00 0.00 0.00 0.00 0.00 0.00 0.00 0.01 0.01 0.01 0.02 0.03 0.02 0.02 0.04 0.05 0.05 0.10 0.12 0.11 0.09
0.00 0.00 0.00 0.00 0.00 0.00 0.00 0.00 0.00 0.00 0.00 0.00 0.00 0.00 0.00 0.00 0.00 0.00 0.00 0.00 0.00 0.00 0.00 0.00 0.00 0.00 0.00 0.00 0.00 0.00 0.00 0.00 0.00 0.01 0.00 0.01 0.01 0.02 0.02 0.03 0.03 0.03 0.07 0.09 0.10 0.14 0.16 0.13 0.11
0.00 0.00 0.00 0.00 0.00 0.00 0.00 0.00 0.00 0.00 0.00 0.00 0.00 0.00 0.00 0.00 0.00 0.00 0.00 0.00 0.00 0.00 0.00 0.00 0.00 0.00 0.00 0.00 0.00 0.00 0.00 0.00 0.01 0.01 0.00 0.00 0.01 0.02 0.02 0.02 0.02 0.03 0.07 0.07 0.06 0.08 0.11 0.11 0.10
0.00 0.00 0.00 0.00 0.00 0.00 0.00 0.00 0.00 0.00 0.00 0.00 0.00 0.00 0.00 0.00 0.00 0.00 0.00 0.00 0.00 0.00 0.00 0.00 0.00 0.00 0.00 0.00 0.00 0.00 0.00 0.00 0.01 0.01 0.01 0.00 0.00 0.01 0.02 0.03 0.02 0.03 0.04 0.03 0.04 0.06 0.09 0.09 0.08
0.00 0.00 0.00 0.00 0.00 0.00 0.00 0.00 0.00 0.00 0.00 0.00 0.00 0.00 0.00 0.00 0.00 0.00 0.00 0.00 0.00 0.00 0.00 0.00 0.00 0.00 0.00 0.00 0.00 0.00 0.00 0.00 0.00 0.01 0.01 0.00 0.00 0.01 0.01 0.01 0.01 0.01 0.01 0.01 0.03 0.05 0.10 0.12 0.08
0.00 0.00 0.00 0.00 0.00 0.00 0.00 0.00 0.00 0.00 0.00 0.00 0.00 0.00 0.00 0.00 0.00 0.00 0.00 0.00 0.00 0.00 0.00 0.00 0.00 0.00 0.00 0.00 0.00 0.00 0.00 0.00 0.00 0.00 0.01 0.01 0.01 0.01 0.01 0.01 0.00 0.01 0.01 0.01 0.02 0.04 0.11 0.14 0.09
0.00 0.00 0.00 0.00 0.00 0.00 0.00 0.00 0.00 0.00 0.00 0.00 0.00 0.00 0.00 0.00 0.00 0.00 0.00 0.00 0.00 0.00 0.00 0.00 0.00 0.00 0.00 0.00 0.00 0.00 0.00 0.00 0.00 0.00 0.01 0.01 0.01 0.01 0.01 0.01 0.01 0.01 0.01 0.01 0.01 0.02 0.09 0.13 0.12
0.00 0.00 0.00 0.00 0.00 0.00 0.00 0.00 0.00 0.00 0.00 0.00 0.00 0.00 0.00 0.00 0.00 0.00 0.00 0.00 0.00 0.00 0.00 0.00 0.00 0.00 0.00 0.00 0.00 0.00 0.00 0.00 0.01 0.01 0.00 0.00 0.01 0.01 0.01 0.01 0.01 0.00 0.00 0.01 0.01 0.01 0.05 0.07 0.12
0.00 0.00 0.00 0.00 0.00 0.00 0.00 0.00 0.00 0.00 0.00 0.00 0.00 0.00 0.00 0.00 0.00 0.00 0.00 0.00 0.00 0.00 0.00 0.00 0.00 0.00 0.00 0.00 0.00 0.00 0.00 0.00 0.00 0.01 0.00 0.00 0.00 0.00 0.00 0.00 0.00 0.00 0.00 0.01 0.01 0.02 0.03 0.03 0.05
0.00 0.00 0.00 0.00 0.00 0.00 0.00 0.00 0.00 0.00 0.00 0.00 0.00 0.00 0.00 0.00 0.00 0.00 0.00 0.00 0.00 0.00 0.00 0.00 0.00 0.00 0.00 0.00 0.00 0.00 0.00 0.00 0.00 0.00 0.00 0.00 0.00 0.00 0.00 0.00 0.00 0.00 0.00 0.00 0.00 0.01 0.01 0.01 0.01
0.00 0.00 0.00 0.00 0.00 0.00 0.00 0.00 0.00 0.00 0.00 0.00 0.00 0.00 0.00 0.00 0.00 0.00 0.00 0.00 0.00 0.00 0.00 0.00 0.00 0.00 0.00 0.00 0.00 0.00 0.00 0.01 0.01 0.01 0.01 0.01 0.01 0.00 0.00 0.00 0.00 0.00 0.00 0.00 0.00 0.00 0.00 0.01 0.02
0.00 0.00 0.00 0.00 0.00 0.00 0.00 0.00 0.00 0.00 0.00 0.00 0.00 0.00 0.00 0.00 0.00 0.00 0.00 0.00 0.00 0.00 0.00 0.00 0.00 0.00 0.00 0.00 0.00 0.00 0.00 0.00 0.01 0.01 0.01 0.01 0.01 0.00 0.00 0.00 0.00 0.00 0.00 0.00 0.00 0.00 0.01 0.01 0.01
0.00 0.00 0.00 0.00 0.00 0.00 0.00 0.00 0.00 0.00 0.00 0.00 0.00 0.00 0.00 0.00 0.00 0.00 0.00 0.00 0.00 0.00 0.00 0.00 0.00 0.00 0.00 0.00 0.00 0.00 0.00 0.00 0.00 0.00 0.00 0.00 0.00 0.00 0.00 0.00 0.00 0.00 0.00 0.00 0.00 0.01 0.01 0.02 0.02
0.00 0.00 0.00 0.00 0.00 0.00 0.00 0.00 0.00 0.00 0.00 0.00 0.00 0.00 0.00 0.00 0.00 0.00 0.00 0.00 0.00 0.00 0.00 0.00 0.00 0.00 0.00 0.00 0.00 0.00 0.00 0.00 0.00 0.00 0.00 0.00 0.00 0.00 0.00 0.00 0.00 0.00 0.00 0.00 0.00 0.01 0.02 0.02 0.02
0.00 0.00 0.00 0.00 0.00 0.00 0.00 0.00 0.00 0.00 0.00 0.00 0.00 0.00 0.00 0.00 0.00 0.00 0.00 0.00 0.00 0.00 0.00 0.00 0.00 0.00 0.00 0.00 0.00 0.00 0.00 0.00 0.00 0.00 0.00 0.00 0.00 0.00 0.00 0.00 0.00 0.00 0.01 0.01 0.01 0.01 0.01 0.02 0.02
0.00 0.00 0.00 0.00 0.00 0.00 0.00 0.00 0.00 0.00 0.00 0.00 0.00 0.00 0.00 0.00 0.00 0.00 0.00 0.00 0.00 0.00 0.00 0.00 0.00 0.00 0.00 0.00 0.00 0.00 0.00 0.00 0.00 0.00 0.00 0.00 0.00 0.01 0.01 0.01 0.01 0.01 0.01 0.03 0.03 0.02 0.02 0.02 0.02
0.00 0.00 0.00 0.00 0.00 0.00 0.00 0.00 0.00 0.00 0.00 0.00 0.00 0.00 0.00 0.00 0.00 0.00 0.00 0.00 0.00 0.00 0.00 0.00 0.00 0.00 0.00 0.00 0.00 0.00 0.00 0.00 0.00 0.00 0.00 0.00 0.00 0.00 0.01 0.01 0.01 0.01 0.02 0.03 0.05 0.05 0.05 0.04 0.04
0.00 0.00 0.00 0.00 0.00 0.00 0.00 0.00 0.00 0.00 0.00 0.00 0.00 0.00 0.00 0.00 0.00 0.00 0.00 0.00 0.00 0.00 0.00 0.00 0.00 0.00 0.00 0.00 0.00 0.00 0.00 0.00 0.00 0.00 0.00 0.00 0.00 0.00 0.00 0.01 0.01 0.01 0.02 0.03 0.04 0.05 0.04 0.05 0.06
0.00 0.00 0.00 0.00 0.00 0.00 0.00 0.00 0.00 0.00 0.00 0.00 0.00 0.00 0.00 0.00 0.00 0.00 0.00 0.00 0.00 0.00 0.00 0.00 0.00 0.00 0.00 0.00 0.00 0.00 0.00 0.00 0.00 0.00 0.00 0.00 0.00 0.00 0.00 0.00 0.00 0.00 0.01 0.01 0.02 0.02 0.02 0.01 0.02
0.00 0.00 0.00 0.00 0.00 0.00 0.00 0.00 0.00 0.00 0.00 0.00 0.00 0.00 0.00 0.00 0.00 0.00 0.00 0.00 0.00 0.00 0.00 0.00 0.00 0.00 0.00 0.00 0.00 0.00 0.00 0.00 0.00 0.00 0.00 0.00 0.00 0.00 0.00 0.00 0.00 0.00 0.00 0.00 0.00 0.00 0.00 0.00 0.00
0.00 0.00 0.00 0.00 0.00 0.00 0.00 0.00 0.00 0.00 0.00 0.00 0.00 0.00 0.00 0.00 0.00 0.00 0.00 0.00 0.00 0.00 0.00 0.00 0.00 0.00 0.00 0.00 0.00 0.00 0.00 0.00 0.00 0.00 0.00 0.00 0.00 0.00 0.00 0.00 0.00 0.00 0.00 0.00 0.00 0.00 0.00 0.00 0.00
0.00 0.00 0.00 0.00 0.00 0.00 0.00 0.00 0.00 0.00 0.00 0.00 0.00 0.00 0.00 0.00 0.00 0.00 0.00 0.00 0.00 0.00 0.00 0.00 0.00 0.00 0.00 0.00 0.00 0.00 0.00 0.00 0.00 0.00 0.00 0.00 0.00 0.00 0.00 0.00 0.00 0.00 0.00 0.00 0.00 0.00 0.00 0.00 0.00
0.00 0.00 0.00 0.00 0.00 0.00 0.00 0.00 0.00 0.00 0.00 0.00 0.00 0.00 0.00 0.00 0.00 0.00 0.00 0.00 0.00 0.00 0.00 0.00 0.00 0.00 0.00 0.00 0.00 0.00 0.00 0.00 0.00 0.00 0.00 0.00 0.00 0.00 0.00 0.00 0.00 0.00 0.00 0.00 0.00 0.00 0.00 0.00 0.00
0.00 0.00 0.00 0.00 0.00 0.00 0.00 0.00 0.00 0.00 0.00 0.00 0.00 0.00 0.00 0.00 0.00 0.00 0.00 0.00 0.00 0.00 0.00 0.00 0.00 0.00 0.00 0.00 0.00 0.00 0.00 0.00 0.00 0.00 0.00 0.00 0.00 0.00 0.00 0.00 0.00 0.00 0.00 0.00 0.00 0.00 0.00 0.00 0.00
0.00 0.00 0.00 0.00 0.00 0.00 0.00 0.00 0.00 0.00 0.00 0.00 0.00 0.00 0.00 0.00 0.00 0.00 0.00 0.00 0.00 0.00 0.00 0.00 0.00 0.00 0.00 0.00 0.00 0.00 0.00 0.00 0.00 0.00 0.00 0.00 0.00 0.00 0.00 0.00 0.00 0.00 0.00 0.00 0.00 0.00 0.00 0.00 0.00
0.00 0.00 0.00 0.00 0.00 0.00 0.00 0.00 0.00 0.00 0.00 0.00 0.00 0.00 0.00 0.00 0.00 0.00 0.00 0.00 0.00 0.00 0.00 0.00 0.00 0.00 0.00 0.00 0.00 0.00 0.00 0.00 0.00 0.00 0.00 0.00 0.00 0.00 0.00 0.00 0.00 0.00 0.00 0.00 0.00 0.00 0.00 0.00 0.00
0.00 0.00 0.00 0.00 0.00 0.00 0.00 0.00 0.00 0.00 0.00 0.00 0.00 0.00 0.00 0.00 0.00 0.00 0.00 0.00 0.00 0.00 0.00 0.00 0.00 0.00 0.00 0.00 0.00 0.00 0.00 0.00 0.00 0.00 0.00 0.00 0.00 0.00 0.00 0.00 0.00 0.00 0.00 0.00 0.00 0.00 0.00 0.00 0.00
0.00 0.00 0.00 0.00 0.00 0.00 0.00 0.00 0.00 0.00 0.00 0.00 0.00 0.00 0.00 0.00 0.00 0.00 0.00 0.00 0.00 0.00 0.00 0.00 0.00 0.00 0.00 0.00 0.00 0.00 0.00 0.00 0.00 0.00 0.00 0.00 0.00 0.00 0.00 0.00 0.00 0.00 0.00 0.00 0.00 0.00 0.00 0.00 0.00
0.00 0.00 0.00 0.00 0.00 0.00 0.00 0.00 0.00 0.00 0.00 0.00 0.00 0.00 0.00 0.00 0.00 0.00 0.00 0.00 0.00 0.00 0.00 0.00 0.00 0.00 0.00 0.00 0.01 0.01 0.01 0.00 0.00 0.00 0.00 0.00 0.00 0.00 0.00 0.00 0.00 0.00 0.00 0.00 0.00 0.00 0.00 0.00 0.00
0.00 0.00 0.00 0.00 0.00 0.00 0.00 0.00 0.00 0.00 0.00 0.00 0.00 0.00 0.00 0.00 0.00 0.00 0.00 0.00 0.00 0.00 0.00 0.00 0.00 0.00 0.01 0.01 0.02 0.02 0.02 0.02 0.01 0.01 0.00 0.00 0.00 0.00 0.00 0.00 0.00 0.00 0.00 0.00 0.00 0.00 0.00 0.00 0.00
MSLP
1012.87 1013.11 1013.43 1013.76 1014.03 1014.16 1014.15 1013.97 1013.68 1013.33 1012.99 1012.70 1012.50 1012.37 1012.29 1012.21 1012.07 1011.85 1011.55 1011.21 1010.89 1010.64 1010.53 1010.57 1010.78 1011.10 1011.48 1011.84 1012.12 1012.31 1012.38 1012.38 1012.33 1012.30 1012.31 1012.36 1012.46 1012.57 1012.67 1012.71 1012.70 1012.65 1012.57 1012.51 1012.48 1012.52 1012.61 1012.74 1012.89
1013.04 1013.32 1013.65 1013.96 1014.17 1014.23 1014.12 1013.85 1013.46 1013.01 1012.59 1012.25 1012.01 1011.88 1011.81 1011.76 1011.68 1011.51 1011.27 1010.98 1010.70 1010.48 1010.39 1010.45 1010.66 1010.99 1011.38 1011.76 1012.07 1012.28 1012.38 1012.40 1012.37 1012.34 1012.33 1012.37 1012.44 1012.51 1012.58 1012.60 1012.58 1012.53 1012.47 1012.43 1012.43 1012.49 1012.61 1012.75 1012.90
1013.31 1013.60 1013.91 1014.17 1014.31 1014.28 1014.07 1013.70 1013.22 1012.71 1012.23 1011.85 1011.59 1011.45 1011.40 1011.37 1011.32 1011.19 1010.99 1010.74 1010.49 1010.29 1010.21 1010.28 1010.50 1010.84 1011.23 1011.62 1011.95 1012.19 1012.32 1012.36 1012.35 1012.32 1012.31 1012.33 1012.38 1012.43 1012.47 1012.48 1012.46 1012.42 1012.38 1012.37 1012.40 1012.48 1012.61 1012.76 1012.89
1013.66 1013.95 1014.22 1014.41 1014.46 1014.33 1014.03 1013.58 1013.04 1012.47 1011.96 1011.56 1011.30 1011.16 1011.11 1011.09 1011.05 1010.94 1010.76 1010.53 1010.29 1010.12 1010.05 1010.12 1010.34 1010.68 1011.06 1011.45 1011.79 1012.04 1012.19 1012.25 1012.26 1012.25 1012.25 1012.26 1012.30 1012.34 1012.38 1012.38 1012.37 1012.34 1012.32 1012.33 1012.39 1012.49 1012.62 1012.75 1012.87
1014.05 1014.32 1014.55 1014.66 1014.62 1014.40 1014.02 1013.51 1012.93 1012.35 1011.83 1011.43 1011.17 1011.04 1010.98 1010.96 1010.91 1010.80 1010.62 1010.39 1010.17 1010.00 1009.94 1010.01 1010.22 1010.53 1010.90 1011.28 1011.61 1011.85 1012.01 1012.09 1012.12 1012.13 1012.14 1012.17 1012.21 1012.26 1012.30 1012.32 1012.31 1012.30 1012.30 1012.33 1012.39 1012.48 1012.60 1012.72 1012.81
1014.43 1014.68 1014.85 1014.89 1014.77 1014.48 1014.04 1013.49 1012.90 1012.32 1011.82 1011.44 1011.19 1011.05 1010.99 1010.95 1010.88 1010.76 1010.58 1010.36 1010.14 1009.98 1009.91 1009.97 1010.16 1010.45 1010.78 1011.12 1011.42 1011.65 1011.80 1011.88 1011.93 1011.96 1012.00 1012.05 1012.12 1012.19 1012.24 1012.27 1012.28 1012.28 1012.29 1012.31 1012.37 1012.45 1012.55 1012.64 1012.70
1014.75 1014.97 1015.08 1015.05 1014.86 1014.52 1014.05 1013.49 1012.90 1012.35 1011.88 1011.52 1011.29 1011.15 1011.08 1011.02 1010.94 1010.81 1010.62 1010.41 1010.20 1010.05 1009.99 1010.04 1010.19 1010.43 1010.72 1011.00 1011.25 1011.44 1011.57 1011.65 1011.71 1011.76 1011.83 1011.91 1012.01 1012.10 1012.18 1012.23 1012.25 1012.26 1012.26 1012.27 1012.30 1012.36 1012.42 1012.48 1012.52
1014.96 1015.14 1015.20 1015.11 1014.87 1014.49 1014.00 1013.46 1012.90 1012.38 1011.94 1011.61 1011.39 1011.25 1011.17 1011.10 1011.01 1010.88 1010.71 1010.51 1010.33 1010.20 1010.14 1010.17 1010.29 1010.48 1010.69 1010.91 1011.09 1011.23 1011.32 1011.39 1011.45 1011.52 1011.62 1011.74 1011.87 1011.99 1012.09 1012.15 1012.18 1012.18 1012.17 1012.16 1012.17 1012.19 1012.22 1012.25 1012.27
1015.05 1015.19 1015.19 1015.05 1014.77 1014.37 1013.89 1013.36 1012.83 1012.34 1011.94 1011.63 1011.42 1011.28 1011.19 1011.12 1011.04 1010.92 1010.78 1010.62 1010.48 1010.38 1010.33 1010.36 1010.44 1010.56 1010.70 1010.83 1010.93 1011.00 1011.06 1011.10 1011.16 1011.25 1011.37 1011.52 1011.68 1011.83 1011.94 1012.02 1012.04 1012.04 1012.01 1011.97 1011.95 1011.94 1011.94 1011.95 1011.97
1015.04 1015.12 1015.07 1014.88 1014.57 1014.17 1013.69 1013.18 1012.68 1012.23 1011.85 1011.56 1011.35 1011.21 1011.12 1011.05 1010.98 1010.90 1010.80 1010.70 1010.61 1010.55 1010.53 1010.54 1010.59 1010.65 1010.70 1010.75 1010.77 1010.77 1010.78 1010.80 1010.85 1010.95 1011.09 1011.25 1011.43 1011.59 1011.72 1011.79 1011.82 1011.80 1011.75 1011.69 1011.65 1011.61 1011.60 1011.61 1011.63
1014.96 1014.98 1014.87 1014.65 1014.32 1013.91 1013.44 1012.96 1012.48 1012.05 1011.69 1011.40 1011.18 1011.04 1010.94 1010.88 1010.84 1010.80 1010.76 1010.73 1010.70 1010.68 1010.68 1010.69 1010.70 1010.70 1010.69 1010.65 1010.59 1010.54 1010.49 1010.49 1010.53 1010.63 1010.78 1010.95 1011.14 1011.30 1011.43 1011.49 1011.51 1011.47 1011.41 1011.35 1011.29 1011.25 1011.24 1011.25 1011.28
1014.86 1014.82 1014.67 1014.41 1014.06 1013.65 1013.20 1012.73 1012.28 1011.86 1011.50 1011.21 1010.98 1010.82 1010.72 1010.67 1010.65 1010.65 1010.67 1010.69 1010.73 1010.76 1010.78 1010.79 1010.77 1010.72 1010.64 1010.54 1010.42 1010.32 1010.24 1010.21 1010.24 1010.34 1010.48 1010.65 1010.83 1010.98 1011.08 1011.13 1011.13 1011.09 1011.03 1010.96 1010.90 1010.87 1010.87 1010.90 1010.96
1014.80 1014.70 1014.51 1014.22 1013.86 1013.46 1013.02 1012.57 1012.14 1011.74 1011.38 1011.07 1010.83 1010.65 1010.54 1010.48 1010.47 1010.50 1010.56 1010.64 1010.72 1010.78 1010.83 1010.84 1010.80 1010.72 1010.59 1010.44 1010.28 1010.14 1010.04 1010.00 1010.02 1010.10 1010.23 1010.38 1010.53 1010.65 1010.73 1010.75 1010.73 1010.68 1010.62 1010.56 1010.53 1010.52 1010.54 1010.60 1010.67
1014.81 1014.67 1014.44 1014.13 1013.77 1013.38 1012.97 1012.55 1012.14 1011.75 1011.40 1011.09 1010.83 1010.63 1010.48 1010.41 1010.39 1010.43 1010.50 1010.60 1010.70 1010.79 1010.84 1010.85 1010.80 1010.70 1010.56 1010.39 1010.21 1010.06 1009.95 1009.90 1009.91 1009.97 1010.08 1010.19 1010.29 1010.37 1010.40 1010.39 1010.35 1010.30 1010.24 1010.21 1010.20 1010.22 1010.27 1010.35 1010.45
1014.91 1014.73 1014.48 1014.17 1013.82 1013.45 1013.07 1012.70 1012.33 1011.97 1011.63 1011.32 1011.04 1010.81 1010.64 1010.52 1010.47 1010.48 1010.54 1010.63 1010.72 1010.81 1010.87 1010.87 1010.82 1010.72 1010.57 1010.40 1010.23 1010.08 1009.98 1009.92 1009.92 1009.96 1010.02 1010.09 1010.14 1010.15 1010.14 1010.09 1010.03 1009.97 1009.92 1009.91 1009.93 1009.99 1010.07 1010.16 1010.27
1015.08 1014.89 1014.62 1014.31 1013.99 1013.66 1013.33 1013.01 1012.70 1012.39 1012.09 1011.79 1011.51 1011.25 1011.03 1010.86 1010.75 1010.71 1010.71 1010.76 1010.82 1010.88 1010.92 1010.92 1010.88 1010.78 1010.65 1010.49 1010.34 1010.21 1010.11 1010.05 1010.03 1010.04 1010.06 1010.07 1010.06 1010.02 1009.96 1009.87 1009.79 1009.72 1009.69 1009.69 1009.74 1009.82 1009.93 1010.04 1010.15
1015.32 1015.11 1014.85 1014.55 1014.26 1013.98 1013.72 1013.47 1013.23 1012.99 1012.73 1012.47 1012.19 1011.91 1011.65 1011.43 1011.25 1011.12 1011.04 1011.02 1011.02 1011.04 1011.04 1011.03 1010.98 1010.89 1010.77 1010.64 1010.51 1010.39 1010.30 1010.24 1010.20 1010.18 1010.16 1010.11 1010.05 1009.96 1009.85 1009.73 1009.63 1009.56 1009.54 1009.56 1009.63 1009.74 1009.85 1009.97 1010.07
1015.59 1015.38 1015.12 1014.85 1014.59 1014.36 1014.16 1014.00 1013.85 1013.68 1013.50 1013.29 1013.03 1012.75 1012.46 1012.18 1011.92 1011.70 1011.53 1011.41 1011.33 1011.27 1011.23 1011.18 1011.12 1011.03 1010.92 1010.80 1010.68 1010.57 1010.48 1010.41 1010.36 1010.30 1010.24 1010.16 1010.06 1009.93 1009.80 1009.66 1009.56 1009.49 1009.48 1009.52 1009.60 1009.72 1009.84 1009.95 1010.04
1015.89 1015.67 1015.41 1015.15 1014.92 1014.74 1014.61 1014.53 1014.46 1014.39 1014.30 1014.15 1013.94 1013.68 1013.38 1013.05 1012.72 1012.40 1012.13 1011.91 1011.73 1011.59 1011.48 1011.38 1011.28 1011.17 1011.05 1010.93 1010.80 1010.69 1010.59 1010.50 1010.42 1010.35 1010.26 1010.17 1010.05 1009.92 1009.78 1009.66 1009.56 1009.51 1009.50 1009.55 1009.64 1009.76 1009.87 1009.98 1010.05
1016.20 1015.96 1015.70 1015.44 1015.23 1015.08 1015.01 1014.99 1015.00 1015.03 1015.02 1014.96 1014.82 1014.60 1014.31 1013.96 1013.58 1013.19 1012.82 1012.49 1012.21 1011.98 1011.78 1011.60 1011.44 1011.29 1011.13 1010.97 1010.82 1010.68 1010.55 1010.44 1010.35 1010.27 1010.19 1010.10 1010.00 1009.90 1009.79 1009.70 1009.63 1009.59 1009.60 1009.65 1009.74 1009.84 1009.95 1010.04 1010.10
1016.52 1016.26 1015.97 1015.70 1015.49 1015.35 1015.30 1015.33 1015.41 1015.52 1015.60 1015.63 1015.58 1015.43 1015.17 1014.83 1014.43 1013.99 1013.55 1013.13 1012.74 1012.40 1012.10 1011.83 1011.59 1011.36 1011.13 1010.91 1010.70 1010.52 1010.36 1010.22 1010.13 1010.05 1010.00 1009.96 1009.91 1009.87 1009.82 1009.78 1009.75 1009.74 1009.76 1009.81 1009.88 1009.96 1010.05 1010.12 1010.17
1016.85 1016.56 1016.24 1015.94 1015.69 1015.53 1015.48 1015.53 1015.65 1015.82 1015.99 1016.12 1016.16 1016.09 1015.91 1015.61 1015.21 1014.75 1014.26 1013.76 1013.28 1012.84 1012.43 1012.06 1011.70 1011.37 1011.06 1010.76 1010.48 1010.24 1010.03 1009.89 1009.79 1009.75 1009.74 1009.76 1009.80 1009.84 1009.87 1009.89 1009.91 1009.93 1009.95 1009.99 1010.03 1010.09 1010.14 1010.20 1010.24
1017.21 1016.87 1016.51 1016.15 1015.86 1015.66 1015.58 1015.61 1015.76 1015.97 1016.21 1016.41 1016.55 1016.58 1016.47 1016.24 1015.88 1015.42 1014.90 1014.35 1013.80 1013.26 1012.75 1012.26 1011.80 1011.36 1010.94 1010.55 1010.20 1009.90 1009.66 1009.50 1009.42 1009.41 1009.47 1009.58 1009.70 1009.83 1009.95 1010.03 1010.09 1010.13 1010.15 1010.16 1010.17 1010.19 1010.21 1010.24 1010.27
1017.59 1017.22 1016.80 1016.39 1016.03 1015.78 1015.64 1015.64 1015.77 1016.00 1016.28 1016.55 1016.77 1016.89 1016.87 1016.70 1016.40 1015.97 1015.44 1014.86 1014.25 1013.64 1013.03 1012.45 1011.89 1011.35 1010.84 1010.37 1009.95 1009.60 1009.33 1009.17 1009.11 1009.14 1009.26 1009.44 1009.65 1009.86 1010.05 1010.19 1010.28 1010.32 1010.32 1010.30 1010.26 1010.23 1010.22 1010.22 1010.23
1018.02 1017.60 1017.14 1016.68 1016.26 1015.94 1015.74 1015.69 1015.78 1016.00 1016.29 1016.60 1016.87 1017.05 1017.10 1017.01 1016.75 1016.35 1015.84 1015.25 1014.60 1013.94 1013.27 1012.61 1011.98 1011.37 1010.80 1010.27 1009.80 1009.42 1009.13 1008.97 1008.93 1009.00 1009.17 1009.41 1009.68 1009.95 1010.18 1010.35 1010.45 1010.48 1010.45 1010.38 1010.30 1010.22 1010.16 1010.13 1010.13
1018.47 1018.04 1017.55 1017.05 1016.58 1016.20 1015.95 1015.84 1015.88 1016.05 1016.32 1016.62 1016.91 1017.12 1017.21 1017.15 1016.93 1016.56 1016.07 1015.48 1014.82 1014.14 1013.44 1012.76 1012.09 1011.45 1010.85 1010.30 1009.82 1009.42 1009.14 1008.98 1008.95 1009.04 1009.24 1009.50 1009.80 1010.09 1010.33 1010.50 1010.58 1010.58 1010.51 1010.40 1010.27 1010.14 1010.04 1009.99 1009.97
1018.97 1018.54 1018.04 1017.53 1017.05 1016.63 1016.32 1016.15 1016.12 1016.23 1016.44 1016.70 1016.95 1017.14 1017.22 1017.16 1016.95 1016.60 1016.11 1015.54 1014.90 1014.23 1013.55 1012.87 1012.22 1011.60 1011.02 1010.49 1010.02 1009.64 1009.36 1009.21 1009.18 1009.27 1009.46 1009.71 1010.00 1010.27 1010.49 1010.63 1010.67 1010.64 1010.53 1010.37 1010.20 1010.04 1009.92 1009.84 1009.80
1019.51 1019.10 1018.64 1018.15 1017.67 1017.24 1016.90 1016.67 1016.57 1016.60 1016.71 1016.88 1017.04 1017.15 1017.17 1017.07 1016.83 1016.46 1015.98 1015.43 1014.82 1014.19 1013.57 1012.96 1012.38 1011.82 1011.31 1010.83 1010.41 1010.06 1009.80 1009.65 1009.60 1009.66 1009.81 1010.02 1010.25 1010.47 1010.64 1010.73 1010.74 1010.67 1010.52 1010.34 1010.15 1009.97 1009.83 1009.74 1009.69
1020.09 1019.73 1019.32 1018.88 1018.44 1018.03 1017.67 1017.40 1017.23 1017.15 1017.14 1017.17 1017.20 1017.18 1017.09 1016.90 1016.59 1016.19 1015.71 1015.17 1014.62 1014.06 1013.53 1013.03 1012.55 1012.11 1011.69 1011.31 1010.96 1010.65 1010.41 1010.25 1010.17 1010.18 1010.26 1010.40 1010.55 1010.70 1010.80 1010.85 1010.81 1010.71 1010.55 1010.36 1010.17 1009.99 1009.85 1009.76 1009.70
1020.71 1020.41 1020.08 1019.71 1019.32 1018.94 1018.59 1018.29 1018.04 1017.85 1017.70 1017.57 1017.43 1017.25 1017.00 1016.68 1016.29 1015.83 1015.34 1014.83 1014.34 1013.88 1013.46 1013.09 1012.76 1012.45 1012.16 1011.87 1011.60 1011.34 1011.12 1010.94 1010.82 1010.76 1010.76 1010.81 1010.88 1010.95 1010.99 1010.99 1010.93 1010.82 1010.67 1010.49 1010.32 1010.16 1010.04 1009.95 1009.89
Thickness
5738 5741 5744 5741 5736 5735 5736 5743 5749 5751 5757 5766 5767 5765 5763 5761 5756 5751 5768 5774 5774 5774 5771 5765 5761 5758 5755 5752 5750 5748 5746 5745 5743 5742 5742 5742 5742 5741 5741 5741 5740 5739 5738 5737 5736 5735 5734 5733 5731
5738 5741 5740 5737 5731 5729 5734 5744 5745 5751 5757 5761 5762 5761 5760 5760 5764 5765 5769 5770 5770 5770 5767 5764 5759 5755 5752 5749 5747 5745 5743 5741 5740 5739 5738 5738 5738 5738 5738 5738 5737 5736 5735 5733 5732 5731 5730 5729 5728
5738 5739 5733 5730 5727 5730 5734 5743 5745 5751 5757 5757 5756 5758 5757 5757 5761 5763 5766 5766 5766 5766 5763 5761 5755 5752 5749 5747 5744 5742 5739 5737 5736 5736 5735 5734 5734 5734 5734 5734 5733 5732 5731 5729 5728 5727 5727 5726 5725
5737 5733 5730 5725 5722 5731 5735 5743 5744 5748 5752 5755 5755 5753 5756 5758 5759 5762 5762 5762 5762 5763 5759 5757 5751 5748 5745 5743 5741 5738 5736 5734 5733 5732 5731 5730 5730 5730 5729 5729 5728 5727 5726 5725 5725 5724 5723 5723 5722
5734 5727 5718 5717 5721 5731 5739 5741 5742 5744 5748 5751 5751 5749 5751 5757 5757 5757 5757 5757 5758 5759 5756 5753 5746 5743 5741 5738 5736 5734 5732 5730 5729 5728 5727 5726 5725 5725 5724 5724 5723 5722 5722 5721 5721 5721 5720 5720 5719
5724 5721 5714 5714 5722 5729 5738 5739 5740 5742 5746 5746 5746 5745 5750 5755 5752 5750 5750 5751 5753 5752 5749 5747 5740 5739 5736 5734 5732 5730 5728 5726 5724 5723 5723 5722 5721 5720 5720 5719 5719 5718 5717 5717 5717 5717 5716 5716 5716
5717 5712 5709 5711 5714 5723 5732 5737 5737 5738 5740 5744 5745 5740 5749 5751 5748 5746 5745 5746 5746 5745 5744 5742 5740 5736 5732 5730 5728 5726 5724 5722 5720 5719 5718 5717 5716 5715 5715 5715 5714 5713 5713 5713 5713 5713 5712 5713 5713
5720 5713 5706 5708 5710 5717 5730 5733 5734 5733 5736 5740 5740 5737 5741 5744 5743 5742 5741 5740 5739 5738 5738 5737 5736 5734 5732 5729 5724 5721 5719 5718 5716 5715 5713 5712 5712 5711 5710 5710 5709 5709 5708 5708 5708 5709 5709 5709 5709
5715 5705 5704 5708 5709 5717 5726 5726 5732 5733 5733 5733 5735 5737 5737 5736 5736 5734 5734 5734 5733 5732 5731 5730 5731 5729 5728 5726 5723 5718 5715 5714 5712 5711 5710 5708 5710 5711 5709 5708 5706 5704 5704 5704 5704 5704 5705 5705 5705
5708 5700 5707 5713 5716 5717 5720 5719 5723 5727 5725 5727 5731 5734 5732 5729 5729 5728 5728 5728 5727 5726 5725 5725 5724 5723 5722 5720 5718 5717 5715 5714 5711 5711 5710 5708 5708 5707 5706 5704 5701 5700 5700 5699 5699 5700 5700 5701 5704
5704 5702 5707 5709 5712 5711 5712 5716 5721 5718 5718 5724 5726 5731 5729 5724 5723 5723 5723 5723 5721 5719 5718 5718 5718 5717 5717 5715 5712 5711 5711 5710 5709 5708 5706 5704 5703 5702 5700 5700 5699 5698 5697 5697 5698 5698 5699 5701 5701
5700 5704 5705 5707 5708 5707 5709 5712 5715 5715 5719 5728 5727 5723 5722 5720 5720 5719 5718 5717 5715 5713 5711 5711 5711 5711 5710 5710 5708 5706 5705 5705 5704 5702 5700 5700 5698 5697 5696 5695 5694 5693 5693 5693 5692 5693 5696 5696 5696
5697 5701 5703 5704 5704 5705 5705 5707 5708 5714 5722 5724 5721 5718 5718 5718 5718 5716 5715 5712 5709 5707 5705 5704 5703 5704 5703 5701 5700 5699 5699 5699 5698 5694 5693 5692 5691 5690 5689 5687 5686 5686 5686 5686 5686 5687 5688 5688 5688
5699 5699 5701 5703 5703 5701 5700 5706 5703 5715 5716 5714 5712 5711 5712 5712 5711 5710 5706 5705 5704 5702 5699 5698 5697 5697 5695 5695 5694 5693 5691 5689 5689 5687 5685 5683 5682 5681 5679 5679 5677 5678 5677 5678 5678 5680 5680 5679 5677
5696 5693 5700 5702 5699 5701 5698 5702 5705 5712 5708 5707 5708 5708 5705 5705 5705 5702 5702 5700 5699 5696 5692 5689 5688 5688 5687 5686 5685 5683 5681 5680 5679 5677 5676 5674 5672 5671 5669 5669 5669 5669 5668 5668 5668 5669 5668 5667 5665
5692 5689 5690 5695 5693 5693 5691 5695 5703 5703 5698 5696 5698 5700 5698 5698 5698 5698 5696 5693 5691 5687 5683 5681 5677 5676 5676 5674 5672 5672 5671 5668 5667 5665 5665 5663 5662 5660 5659 5658 5658 5658 5657 5657 5656 5656 5655 5654 5654
5685 5685 5683 5684 5686 5684 5683 5686 5696 5693 5686 5685 5686 5687 5687 5688 5688 5689 5688 5685 5682 5677 5673 5668 5664 5662 5661 5659 5657 5657 5656 5654 5653 5652 5652 5650 5649 5648 5647 5646 5646 5646 5646 5645 5645 5645 5644 5643 5642
5674 5674 5673 5672 5678 5674 5674 5680 5684 5676 5673 5673 5673 5673 5673 5673 5672 5673 5673 5672 5667 5662 5658 5653 5649 5647 5645 5642 5641 5640 5639 5639 5638 5637 5636 5634 5634 5632 5633 5632 5632 5632 5632 5631 5632 5631 5631 5630 5630
5663 5662 5664 5669 5668 5663 5669 5670 5668 5662 5659 5657 5657 5657 5657 5657 5658 5657 5656 5654 5649 5644 5640 5637 5634 5631 5628 5627 5625 5623 5623 5621 5620 5619 5618 5617 5617 5616 5615 5615 5616 5615 5616 5616 5616 5615 5614 5613 5614
5658 5658 5663 5664 5660 5655 5660 5658 5656 5650 5644 5641 5640 5640 5639 5640 5642 5640 5637 5634 5630 5627 5624 5621 5619 5617 5614 5612 5610 5608 5607 5605 5604 5601 5600 5599 5599 5598 5597 5598 5598 5598 5598 5598 5598 5598 5597 5597 5597
5654 5653 5652 5649 5652 5652 5643 5657 5644 5638 5634 5628 5625 5622 5622 5620 5620 5618 5616 5612 5610 5607 5605 5602 5602 5601 5599 5596 5593 5590 5589 5587 5585 5585 5584 5582 5581 5581 5580 5581 5581 5581 5581 5581 5581 5581 5581 5582 5583
5647 5644 5641 5641 5640 5645 5635 5640 5643 5627 5618 5610 5606 5603 5600 5598 5596 5593 5590 5588 5587 5585 5584 5582 5581 5582 5581 5579 5577 5576 5574 5573 5573 5571 5568 5567 5565 5565 5564 5564 5564 5564 5564 5564 5565 5565 5565 5566 5567
5638 5639 5637 5634 5631 5632 5628 5626 5638 5619 5604 5592 5587 5583 5580 5577 5573 5570 5566 5563 5562 5562 5562 5562 5561 5561 5561 5560 5560 5558 5558 5558 5556 5553 5551 5551 5550 5549 5548 5548 5548 5548 5548 5549 5548 5548 5549 5550 5552
5630 5637 5641 5624 5626 5628 5621 5618 5628 5603 5584 5576 5571 5567 5563 5558 5554 5550 5546 5543 5541 5540 5539 5540 5541 5541 5540 5540 5540 5539 5540 5539 5537 5536 5536 5536 5536 5534 5533 5532 5532 5532 5533 5533 5533 5533 5534 5535 5537
5625 5625 5628 5629 5628 5627 5609 5604 5611 5578 5566 5559 5554 5550 5545 5539 5534 5529 5525 5521 5519 5516 5515 5516 5518 5520 5519 5519 5519 5520 5520 5520 5520 5522 5522 5522 5522 5520 5518 5517 5517 5518 5517 5517 5517 5518 5519 5520 5522
5608 5607 5600 5596 5606 5615 5609 5596 5591 5564 5550 5545 5539 5531 5525 5519 5513 5508 5502 5497 5493 5491 5489 5489 5491 5496 5498 5499 5500 5501 5501 5502 5505 5507 5508 5508 5508 5506 5503 5501 5502 5502 5502 5501 5502 5503 5505 5506 5509
5598 5592 5584 5579 5586 5583 5597 5588 5569 5547 5540 5532 5526 5519 5511 5503 5494 5486 5479 5474 5470 5467 5465 5463 5466 5472 5479 5482 5484 5485 5486 5487 5488 5489 5489 5490 5490 5488 5486 5485 5486 5486 5486 5487 5487 5489 5491 5494 5498
5583 5577 5571 5566 5564 5573 5591 5584 5566 5535 5525 5519 5510 5500 5489 5478 5469 5461 5456 5453 5449 5445 5443 5442 5442 5449 5459 5467 5471 5472 5472 5472 5471 5471 5471 5471 5472 5470 5469 5469 5470 5470 5472 5473 5474 5475 5477 5481 5486
5568 5561 5555 5552 5546 5543 5553 5566 5533 5519 5506 5493 5483 5472 5462 5455 5448 5442 5439 5437 5433 5428 5424 5423 5424 5428 5438 5448 5453 5455 5454 5454 5455 5456 5456 5455 5456 5454 5454 5453 5454 5455 5457 5459 5461 5463 5465 5469 5475
5552 5547 5542 5535 5536 5527 5521 5535 5516 5507 5490 5473 5463 5455 5448 5442 5436 5431 5428 5426 5422 5416 5410 5407 5406 5408 5412 5419 5425 5429 5431 5435 5438 5440 5440 5440 5440 5439 5438 5437 5438 5441 5443 5445 5448 5450 5453 5458 5463